Powrót do katalogu

STARLINK-6253

AktywnyŁącznośćVLEO
NORAD 57083·PAYLOAD·🇺🇸 United States

Wystrzelony Jun 22, 2023 z Vandenberg Space Force Base

Loading…

Następne Przeloty (najbliższe 24 godziny)

TLE

ŚwieżeSource: CelesTrak SupGP

Epoka: Sep 15, 2026, 02:18 UTC

1 57083C 23088AM  26258.09631944  .00043439  00000+0  15728-2 0  2588
2 57083  43.0007 106.4918 0001404 256.4271 229.7424 15.27568025    16

Śledź STARLINK-6253 w czasie rzeczywistym z AllMySat

Download on the App Store